Orbital Elements at Epoch 2459200.5 (2020-Dec-17.0) TDB
Reference: JPL 16 (heliocentric ecliptic J2000)
Element | Value | Uncertainty (1-sigma) | Units |
e | .1483486509012433 | 4.742e-08 | |
a | 3.026001574166538 | 2.5203e-08 | au |
q | 2.577098323013894 | 1.4362e-07 | au |
i | 6.161163685564447 | 5.7482e-06 | deg |
node | 224.2464407206674 | 5.1356e-05 | deg |
peri | 258.7711620301411 | 5.5964e-05 | deg |
M | 250.0193888795417 | 2.6686e-05 | deg |
tp | 2459787.875434218355 (2022-Jul-27.37543422) | 0.00014702 | TDB |
period | 1922.658495568893 5.26 | 2.402e-05 6.576e-08 | d yr |
n | .1872407402717039 | 2.3392e-09 | deg/d |
Q | 3.474904825319183 | 2.8942e-08 | au |
|
| | Orbit Determination Parameters
Additional Information
|